DW9584 Weather Reports


time (UTC)temp
C
wind
direction
speed
KPH
gust
KPH
rain 1hr
cm
rain 24hr
cm
rain mn
cm
humidity
%
barometer
mb
20260510110018 11 352 0.0 0.0 0.00 0.00 0.00 95 1012.3
20260510104527 10 352 0.0 3.2 0.00 0.00 0.00 95 1012.1
20260510103024 10 352 0.0 1.6 0.00 0.00 0.00 95 1011.9
20260510101522 10 352 0.0 3.2 0.00 0.00 0.00 95 1012.0
20260510100021 10 352 0.0 0.0 0.00 0.00 0.00 95 1011.9
20260510094524 10 352 0.0 3.2 0.00 0.00 0.00 95 1011.7
20260510093023 10 300 0.0 3.2 0.00 0.00 0.00 95 1011.8
20260510091527 9 249 0.0 4.8 0.00 0.00 0.00 95 1011.5
20260510090008 9 200 0.0 3.2 0.00 0.00 0.00 95 1011.6
20260510084508 8 229 0.0 3.2 0.00 0.00 0.00 95 1011.7
20260510083004 8 1 0.0 0.0 0.00 0.00 0.00 95 1011.2
20260510081533 8 1 0.0 0.0 0.00 0.00 0.00 95 1011.1
20260510080024 8 1 0.0 0.0 0.00 0.00 0.00 95 1011.2
20260510074519 8 1 0.0 0.0 0.00 0.00 0.00 95 1011.1
20260510073025 8 1 0.0 0.0 0.00 0.00 0.00 95 1011.0
20260510071516 8 1 0.0 0.0 0.00 0.00 0.00 95 1010.8
20260510070021 8 1 0.0 0.0 0.00 0.00 0.00 95 1010.4
20260510064536 8 1 0.0 0.0 0.00 0.00 0.00 94 1010.6
20260510063038 8 1 0.0 0.0 0.00 0.00 0.00 94 1010.7
20260510061507 8 1 0.0 0.0 0.00 0.00 0.00 94 1010.8
20260510060006 9 1 0.0 0.0 0.00 0.00 0.00 94 1010.7
20260510054524 9 1 0.0 0.0 0.00 0.00 0.00 94 1011.0
20260510053019 9 1 0.0 0.0 0.00 0.00 0.00 94 1011.0
20260510051518 9 1 0.0 0.0 0.00 0.00 0.00 94 1011.2
20260510050014 9 1 0.0 0.0 0.00 0.00 0.00 94 1011.3
20260510044511 10 1 0.0 0.0 0.00 0.00 0.00 94 1011.3
20260510043012 10 1 0.0 0.0 0.00 0.00 0.00 94 1011.3
20260510041506 10 1 0.0 0.0 0.00 0.00 0.00 94 1011.4
20260510040027 10 1 0.0 0.0 0.00 0.00 0.00 94 1011.5
20260510034525 10 1 0.0 0.0 0.00 0.00 0.00 93 1011.4
20260510033024 10 1 0.0 0.0 0.00 0.00 0.00 93 1011.1
20260510031518 10 1 0.0 0.0 0.00 0.00 0.00 93 1011.0
20260510030015 10 1 0.0 0.0 0.00 0.00 0.00 93 1010.9
20260510024516 11 1 0.0 0.0 0.00 0.00 0.00 92 1010.8
20260510023013 11 1 0.0 0.0 0.00 0.00 0.00 92 1011.0
20260510021527 11 1 0.0 0.0 0.00 0.00 0.00 92 1010.9
20260510020028 11 1 0.0 0.0 0.00 0.00 0.00 91 1010.9
20260510014529 11 1 0.0 0.0 0.00 0.00 0.00 91 1010.7
20260510013025 11 1 0.0 0.0 0.00 0.00 0.00 90 1010.5
20260510011525 12 1 0.0 0.0 0.00 0.00 0.00 90 1010.5
20260510010021 12 1 0.0 0.0 0.00 0.00 0.00 89 1010.5
20260510004515 12 1 0.0 0.0 0.00 0.00 0.00 88 1010.3
20260510003043 12 1 0.0 0.0 0.00 0.00 0.00 87 1010.3
20260510001528 13 1 0.0 0.0 0.00 0.00 0.00 85 1010.3
20260510000030 13 1 0.0 0.0 0.00 0.00 0.00 84 1010.3
20260509234536 13 1 0.0 0.0 0.00 0.00 0.00 82 1010.3
20260509233035 14 1 0.0 0.0 0.00 0.00 0.00 80 1010.2
20260509231528 15 1 0.0 0.0 0.00 0.00 0.00 79 1010.1
20260509230021 15 1 0.0 0.0 0.00 0.00 0.00 77 1009.9
20260509224518 15 1 0.0 1.6 0.00 0.00 0.00 80 1010.1
20260509223032 15 1 0.0 4.8 0.00 0.00 0.00 79 1010.1
20260509221529 15 357 0.0 3.2 0.00 0.00 0.00 80 1010.0
20260509220029 14 357 0.0 0.0 0.00 0.00 0.00 81 1010.2
20260509214528 14 53 0.0 3.2 0.00 0.00 0.00 81 1010.2
20260509213027 14 6 0.0 3.2 0.00 0.00 0.00 82 1010.4
20260509211523 14 359 0.0 1.6 0.00 0.00 0.00 81 1010.3
20260509210026 15 359 0.0 0.0 0.00 0.00 0.00 78 1010.3
20260509204520 15 359 1.6 3.2 0.00 0.00 0.00 76 1010.4
20260509203024 15 297 0.0 8.0 0.00 0.00 0.00 75 1010.2
20260509201518 15 346 0.0 6.4 0.00 0.00 0.00 76 1010.3
20260509200013 15 54 1.6 6.4 0.00 0.00 0.00 77 1010.0
20260509194527 15 259 1.6 8.0 0.00 0.00 0.00 77 1010.4
20260509193007 15 360 1.6 3.2 0.00 0.00 0.00 78 1010.4
20260509191526 15 332 1.6 11.3 0.00 0.00 0.00 78 1010.7
20260509190026 15 344 0.0 8.0 0.00 0.00 0.00 75 1010.9
20260509184532 14 171 1.6 8.0 0.00 0.00 0.00 74 1011.0
20260509183030 15 191 4.8 11.3 0.00 0.00 0.00 72 1011.0
20260509181520 15 311 3.2 12.9 0.00 0.00 0.00 72 1011.1
20260509180019 16 88 1.6 8.0 0.00 0.00 0.00 70 1011.2
20260509174512 16 293 0.0 6.4 0.00 0.00 0.00 68 1011.2
20260509173030 17 198 0.0 3.2 0.00 0.00 0.00 66 1011.0
20260509171534 16 294 1.6 8.0 0.00 0.00 0.00 67 1011.0
20260509170026 17 203 1.6 8.0 0.00 0.00 0.00 65 1011.1
20260509164523 17 356 0.0 4.8 0.00 0.00 0.00 65 1011.2
20260509163048 17 198 0.0 8.0 0.00 0.00 0.00 64 1011.2
20260509161527 17 174 1.6 11.3 0.00 0.00 0.00 65 1011.3
20260509160018 17 304 0.0 6.4 0.00 0.00 0.00 66 1011.5
20260509154516 17 293 0.0 3.2 0.00 0.00 0.00 67 1011.7
20260509153028 17 226 0.0 3.2 0.00 0.00 0.00 68 1011.9
20260509151528 16 350 0.0 8.0 0.00 0.00 0.00 69 1012.1
20260509150028 16 217 0.0 4.8 0.00 0.00 0.00 68 1012.1
20260509144526 16 167 0.0 6.4 0.00 0.00 0.00 68 1012.0
20260509143033 17 280 1.6 11.3 0.00 0.00 0.00 68 1011.9
20260509141526 17 226 1.6 6.4 0.00 0.00 0.00 70 1011.9
20260509140021 16 193 1.6 8.0 0.00 0.00 0.00 73 1011.7
20260509134528 16 152 0.0 3.2 0.00 0.00 0.00 75 1011.8
20260509133026 16 300 0.0 4.8 0.00 0.00 0.00 75 1011.7
20260509131526 15 215 0.0 4.8 0.00 0.00 0.00 77 1011.8
20260509130026 15 354 0.0 3.2 0.00 0.00 0.00 78 1012.1
20260509124535 15 227 0.0 6.4 0.00 0.00 0.00 79 1012.2
20260509123027 15 174 0.0 4.8 0.00 0.00 0.00 80 1012.1
20260509121535 14 72 0.0 4.8 0.00 0.00 0.00 80 1012.1
20260509120003 13 49 0.0 4.8 0.00 0.00 0.00 81 1012.1
20260509114542 13 224 0.0 3.2 0.00 0.00 0.00 81 1012.1
20260509113019 13 67 0.0 3.2 0.00 0.00 0.00 82 1012.0
20260509111516 13 152 0.0 3.2 0.00 0.00 0.00 82 1012.0